Location: Kaseke
(18.0171°S, 31.0526°E)
Time: 18:42:05
(UTC+00:00)

Hubble Space Telescope - Visible Passes

Search period start: 23 June 2021 00:00
Search period end: 03 July 2021 00:00
Orbit: 535 x 539 km, 28.5° (Epoch: 22 June)

Date Brightness Start Highest point End Pass type
(mag) Time Alt. Az. Time Alt. Az. Time Alt. Az.
23 Jun 1.3 02:38:51 51° SE 02:38:51 51° SE 02:42:26 10° E visible
24 Jun 1.8 02:28:37 44° E 02:28:37 44° E 02:31:35 10° ENE visible
24 Jun 3.6 17:45:46 10° NNW 17:46:11 12° NNW 17:46:11 12° NNW visible
25 Jun 2.5 02:18:24 31° ENE 02:18:24 31° ENE 02:20:39 10° ENE visible
25 Jun 2.8 03:54:41 10° WNW 03:57:27 17° NNW 04:00:14 10° NNE visible
25 Jun 3.0 17:34:24 10° NNW 17:35:59 20° NNW 17:35:59 20° NNW visible
26 Jun 3.2 02:08:11 21° NE 02:08:11 21° NE 02:09:39 10° NE visible
26 Jun 3.1 03:44:37 10° WNW 03:46:28 13° NNW 03:48:19 10° N visible
26 Jun 2.2 17:23:10 10° NW 17:25:47 31° NNW 17:25:47 31° NNW visible
27 Jun 3.7 01:58:00 13° NE 01:58:00 13° NE 01:58:34 10° NE visible
27 Jun 1.3 17:12:03 10° NW 17:15:35 52° N 17:15:35 52° N visible
28 Jun 0.6 17:01:01 10° WNW 17:05:08 77° NNE 17:05:22 73° ENE visible
29 Jun 0.7 16:50:03 10° WNW 16:54:11 81° SSW 16:55:08 51° SE visible
30 Jun 0.9 16:39:09 10° WNW 16:43:15 62° SSW 16:44:53 33° SE visible
01 Jul 1.3 16:28:19 10° W 16:32:20 48° SSW 16:34:36 23° SE visible
02 Jul 1.6 16:17:33 10° W 16:21:26 39° SSW 16:24:19 16° SE visible
